VKG001 ENVA-ESSA

Flight info

Callsign VKG001
Flight time 0h 47m
Altitude 33000
Route SOLKA DCT ELTOK
Aircraft A321/M-SDE3FGHIRWY/LB1

Departure

Time 2026-05-04 16:29
Airport Trondheim Airport, Værnes (ENVA)

Arrival

Time 2026-05-04 17:16
Airport Stockholm-Arlanda Airport (ESSA)
Time Latitude Longitude Altitude Speed Heading
2026-05-04 16:09 63.45502 10.91664 39 ft 0 kts 181°
2026-05-04 16:22 63.45522 10.91664 38 ft 4 kts 177°
2026-05-04 16:23 63.45594 10.91612 35 ft 4 kts 106°
2026-05-04 16:24 63.45596 10.91598 34 ft 0 kts 90°
2026-05-04 16:26 63.45594 10.92262 41 ft 19 kts 90°
2026-05-04 16:26 63.45593 10.93270 53 ft 24 kts 87°
2026-05-04 16:27 63.45609 10.93858 55 ft 15 kts 60°
2026-05-04 16:28 63.45757 10.94017 59 ft 11 kts 267°
2026-05-04 16:28 63.45758 10.89873 220 ft 148 kts 271°
2026-05-04 16:29 63.45723 10.81215 2666 ft 153 kts 253°
2026-05-04 16:30 63.42250 10.82008 3645 ft 250 kts 129°
2026-05-04 16:31 63.40591 10.89181 4812 ft 279 kts 116°
2026-05-04 16:31 63.38024 11.01465 7130 ft 298 kts 112°
2026-05-04 16:32 63.37410 11.15398 9657 ft 307 kts 89°
2026-05-04 16:33 63.37369 11.25193 10609 ft 334 kts 90°
2026-05-04 16:33 63.37004 11.36202 10887 ft 379 kts 97°
2026-05-04 16:34 63.36343 11.48185 11920 ft 395 kts 97°
2026-05-04 16:34 63.36003 11.54307 12546 ft 401 kts 97°
2026-05-04 16:35 63.34945 11.73120 14367 ft 412 kts 97°
2026-05-04 16:35 63.33788 11.92362 16176 ft 420 kts 102°
2026-05-04 16:36 63.32948 11.98598 16710 ft 422 kts 113°
2026-05-04 16:36 63.29812 12.09639 17764 ft 425 kts 135°
2026-05-04 16:37 63.25258 12.17881 18851 ft 424 kts 147°
2026-05-04 16:37 63.22865 12.21719 19344 ft 426 kts 147°
2026-05-04 16:37 63.18058 12.29420 20231 ft 433 kts 149°
2026-05-04 16:38 63.13138 12.37252 21180 ft 438 kts 149°
2026-05-04 16:39 63.05639 12.49168 22501 ft 447 kts 149°
2026-05-04 16:39 63.00549 12.57218 23371 ft 453 kts 149°
2026-05-04 16:40 62.95391 12.65330 24027 ft 459 kts 149°
2026-05-04 16:40 62.90162 12.73502 24628 ft 464 kts 149°
2026-05-04 16:41 62.84862 12.81747 25169 ft 470 kts 151°
2026-05-04 16:41 62.76747 12.94316 25915 ft 481 kts 151°
2026-05-04 16:42 62.68478 13.07041 26823 ft 487 kts 152°
2026-05-04 16:43 62.62940 13.15512 27586 ft 486 kts 152°
2026-05-04 16:43 62.57400 13.23952 28286 ft 486 kts 152°
2026-05-04 16:43 62.54627 13.28153 28638 ft 486 kts 152°
2026-05-04 16:44 62.43497 13.44915 29600 ft 492 kts 153°
2026-05-04 16:45 62.37862 13.53357 30118 ft 493 kts 153°
2026-05-04 16:46 62.29416 13.65964 30914 ft 492 kts 153°
2026-05-04 16:46 62.23766 13.74317 31447 ft 492 kts 152°
2026-05-04 16:47 62.18119 13.82617 31988 ft 492 kts 152°
2026-05-04 16:47 62.12479 13.90886 32466 ft 492 kts 152°
2026-05-04 16:48 62.03983 14.03284 32659 ft 493 kts 153°
2026-05-04 16:48 62.01153 14.07390 32648 ft 493 kts 153°
2026-05-04 16:49 61.89818 14.23750 32650 ft 492 kts 153°
2026-05-04 16:50 61.78467 14.39994 32618 ft 492 kts 153°
2026-05-04 16:51 61.69924 14.52089 32665 ft 494 kts 154°
2026-05-04 16:52 61.58502 14.68157 32664 ft 493 kts 154°
2026-05-04 16:53 61.49940 14.80153 32655 ft 493 kts 155°
2026-05-04 16:54 61.38548 14.95888 32630 ft 491 kts 155°
2026-05-04 16:55 61.21387 15.19424 32650 ft 491 kts 156°
2026-05-04 16:56 61.07092 15.38777 32633 ft 490 kts 156°
2026-05-04 16:57 60.98551 15.50242 32638 ft 487 kts 156°
2026-05-04 16:58 60.87214 15.65341 32639 ft 484 kts 156°
2026-05-04 17:00 60.70246 15.87700 32597 ft 483 kts 156°
2026-05-04 17:01 60.57056 16.04872 32616 ft 482 kts 156°
2026-05-04 17:02 60.45757 16.19472 32550 ft 470 kts 157°
2026-05-04 17:02 60.40182 16.26623 30832 ft 477 kts 158°
2026-05-04 17:03 60.37370 16.30196 30245 ft 476 kts 158°
2026-05-04 17:03 60.34579 16.33752 29636 ft 473 kts 157°
2026-05-04 17:03 60.29040 16.40813 28019 ft 474 kts 157°
2026-05-04 17:04 60.23390 16.47954 25984 ft 484 kts 157°
2026-05-04 17:04 60.17647 16.55188 24111 ft 489 kts 156°
2026-05-04 17:05 60.12452 16.64290 22124 ft 513 kts 131°
2026-05-04 17:05 60.09425 16.77093 20125 ft 499 kts 117°
2026-05-04 17:06 60.06837 16.89687 18197 ft 478 kts 117°
2026-05-04 17:06 60.05578 16.95785 17203 ft 469 kts 117°
2026-05-04 17:07 60.03109 17.07583 15219 ft 451 kts 116°
2026-05-04 17:07 60.02304 17.11384 14586 ft 446 kts 116°
2026-05-04 17:07 60.00699 17.18922 13336 ft 436 kts 116°
2026-05-04 17:07 59.99518 17.24449 12313 ft 428 kts 116°
2026-05-04 17:08 59.98370 17.29811 11324 ft 421 kts 116°
2026-05-04 17:08 59.96318 17.40526 9418 ft 407 kts 108°
2026-05-04 17:08 59.95545 17.45918 8556 ft 398 kts 108°
2026-05-04 17:09 59.94793 17.51074 8165 ft 377 kts 108°
2026-05-04 17:09 59.94067 17.56030 7741 ft 359 kts 108°
2026-05-04 17:09 59.93394 17.60638 7377 ft 344 kts 108°
2026-05-04 17:10 59.92101 17.69451 6620 ft 319 kts 108°
2026-05-04 17:10 59.90330 17.81634 5420 ft 295 kts 108°
2026-05-04 17:11 59.89771 17.85518 5025 ft 287 kts 108°
2026-05-04 17:11 59.89232 17.89286 4646 ft 279 kts 108°
2026-05-04 17:11 59.88218 17.96571 3872 ft 266 kts 110°
2026-05-04 17:12 59.87358 17.99696 3512 ft 252 kts 136°
2026-05-04 17:12 59.84495 18.02692 2952 ft 222 kts 180°
2026-05-04 17:13 59.80156 18.01461 2445 ft 206 kts 197°
2026-05-04 17:14 59.75912 17.99905 2348 ft 209 kts 197°
2026-05-04 17:14 59.74485 17.99385 2094 ft 208 kts 197°
2026-05-04 17:14 59.71697 17.98371 1567 ft 195 kts 196°
2026-05-04 17:15 59.70421 17.97910 1302 ft 178 kts 197°
2026-05-04 17:15 59.68167 17.97090 805 ft 153 kts 195°
2026-05-04 17:16 59.66083 17.96338 455 ft 149 kts 196°
2026-05-04 17:16 59.63657 17.95439 145 ft 33 kts 190°
2026-05-04 17:17 59.63454 17.95351 144 ft 26 kts 199°
2026-05-04 17:17 59.63274 17.94915 138 ft 9 kts 343°
2026-05-04 17:18 59.63349 17.94926 138 ft 14 kts
2026-05-04 17:18 59.63541 17.94996 138 ft 13 kts 11°
2026-05-04 17:19 59.63706 17.95061 138 ft 15 kts 11°
2026-05-04 17:19 59.64040 17.95184 138 ft 31 kts 11°
2026-05-04 17:20 59.64491 17.95337 138 ft 32 kts 11°
2026-05-04 17:20 59.64922 17.95493 138 ft 31 kts 10°
2026-05-04 17:20 59.65130 17.95469 138 ft 30 kts 345°
2026-05-04 17:21 59.65525 17.95262 138 ft 29 kts 345°
2026-05-04 17:21 59.65744 17.94982 138 ft 17 kts 259°
2026-05-04 17:22 59.65715 17.94752 138 ft 17 kts 255°
2026-05-04 17:22 59.65678 17.94464 138 ft 28 kts 255°
2026-05-04 17:23 59.65557 17.93516 138 ft 14 kts 255°
2026-05-04 17:23 59.65513 17.93353 138 ft 13 kts 211°
2026-05-04 17:23 59.65463 17.93407 138 ft 4 kts 84°
2026-05-04 17:24 59.65470 17.93465 138 ft 3 kts 77°
2026-05-04 17:24 59.65471 17.93479 138 ft 0 kts 76°